Regional Weather Roundup
Issued by NWS Goodland, KS

Home | Current Version | Previous Version | Graphics & Text | Print | Product List | Glossary On
Versions: 1 2 3 4 5 6 7 8 9 10 11 12 13 14 15 16 17 18 19 20 21 22 23 24 25 26 27 28 29 30 31 32 33 34 35 36 37 38 39 40 41 42 43 44 45 46 47 48 49 50
000
ASUS43 KGLD 062059
RWRGLD

GOODLAND FORECAST AREA HOURLY WEATHER ROUNDUP
NATIONAL WEATHER SERVICE GOODLAND KS
300 PM MDT WED MAY 06 2015

...OFFICIAL OBSERVATIONS...

CITY           SKY/WX    TMP DP  RH WIND       PRES   REMARKS
GOODLAND KS    PTSUNNY   63  54  72 S9        29.65F
HILL CITY KS   PTSUNNY   75  56  51 SW20G30   29.60F
IMPERIAL NEB   CLOUDY    62  52  69 S15       29.61S
MCCOOK NEB     CLOUDY    68  54  60 SW18G29   29.61F
AKRON CO       RAIN      54  53  97 W14       29.64R
BURLINGTON CO  CLOUDY    66  52  60 SW12      29.66F
LIMON CO       CLOUDY    64  47  53 NW10      29.71S
$$

...UNOFFICIAL OBSERVATIONS...

CITY           SKY/WX    TMP DP  RH WIND       PRES   REMARKS
COLBY KS       DRIZZLE   64  59  82 S12       29.66F
GOVE KS          N/A     70  32  24 MISG        N/A
LENORA KS        N/A     73  32  22 MISG        N/A
NORTON KS      MOSUNNY   75  52  43 SW18G24   29.58F
SHARON SPRINGS   N/A     65  56  71 MISG        N/A
TRENTON NEB      N/A     66  32  28 S14         N/A
KIT CARSON CO    N/A     62  54  74 MISG        N/A
YUMA CO          N/A     58  53  85 W20         N/A
$$



USA.gov is the U.S. government's official web portal to all federal, state and local government web resources and services.